Location: Daybis Observatory
(33.4273°N, 88.8061°W)
Time: 03:06:11
(UTC-05:00)

Daily predictions for brighter satellites

Satellite Brightness Start Highest point End
(mag) Time Altitude Azimuth Time Altitude Azimuth Time Altitude Azimuth
CENTAUR R/B 4.1 01:34:34 10° NNW 01:39:08 39° NNW 01:39:08 39° NNW
Cosmos 1943 Rocket 4.4 02:07:29 10° N 02:10:35 20° NE 02:10:35 20° NE
SL-16 R/B 4.3 02:12:49 24° ENE 02:13:09 24° ENE 02:17:59 10° NNE
Cosmos 2369 Rocket 4.2 02:10:43 10° N 02:13:04 23° N 02:13:04 23° N
Resurs 1-4 Rocket 4.2 02:26:00 10° NE 02:28:16 22° NE 02:28:16 22° NE
CZ-2D R/B 4.1 02:29:19 10° NE 02:31:54 24° NE 02:31:54 24° NE
BREEZE-M DEB (TANK) 4.1 03:05:25 54° NNW 03:06:51 71° NE 03:25:12 10° SE
COSMOS 2406 4.5 03:08:44 34° E 03:08:44 34° E 03:13:08 10° NE
ARIANE 5 R/B 3.4 03:19:05 10° NNE 03:22:47 47° NNE 03:22:47 47° NNE
ADEOS II 4.5 03:21:48 10° NE 03:24:58 16° E 03:27:31 12° SE
Cosmos 2285 Rocket 4.3 03:34:58 54° SE 03:35:44 57° ESE 03:41:58 10° NNE
ADEOS 4.0 03:38:55 10° N 03:43:02 54° NNW 03:43:02 54° NNW
IRS-1D 4.5 03:39:41 10° N 03:43:10 38° NNW 03:43:10 38° NNW
Cosmos 1805 Rocket 4.4 03:43:04 10° N 03:47:01 48° ENE 03:47:01 48° ENE
Cosmos 2221 3.9 03:51:18 31° NNW 03:51:18 31° NNW 03:53:42 10° N
Cosmos 2098 Rocket 4.3 03:51:32 48° WNW 03:51:32 48° WNW 03:56:18 10° N
Okean O Rocket 4.2 03:51:49 10° NE 03:54:33 16° E 03:57:17 10° SE
Cosmos 1943 Rocket 3.9 03:50:20 10° NW 03:52:01 19° NW 03:52:01 19° NW
SL-16 R/B 3.2 03:57:55 39° WNW 03:57:55 39° WNW 04:02:20 10° NNW
OAO 1 4.4 03:58:47 82° SSE 03:58:47 82° SSE 04:04:15 10° ENE
Cosmos 1656 Rocket 3.6 04:01:58 10° NNW 04:07:42 87° WSW 04:10:38 30° SSE
Cosmos 292 Rocket 3.6 04:08:51 85° SSE 04:08:59 87° ESE 04:13:47 10° NNE
Resurs 1-4 Rocket 3.4 04:05:58 10° NNW 04:09:20 25° NW 04:09:20 25° NW
Cosmos 1400 Rocket 4.1 04:09:13 10° NNW 04:11:23 31° NNW 04:11:23 31° NNW
CZ-2D R/B 3.5 04:09:39 10° NNW 04:13:14 25° NW 04:13:14 25° NW
Cosmos 372 Rocket 3.8 04:09:30 10° NNW 04:14:41 76° WSW 04:15:40 58° S
Cosmos 2123 Rocket 4.1 04:09:19 10° NNW 04:15:18 49° W 04:15:39 48° W
ASTRO E2 4.4 04:17:33 23° SE 04:17:33 23° SE 04:19:21 10° ESE
UNKNOWN OBJECT B 4.2 04:13:35 10° N 04:16:06 30° NNW 04:16:06 30° NNW
CZ-3A R/B 3.1 04:11:24 10° NW 04:17:39 59° SW 04:23:38 10° SSE
MOZ.5/SAFIR/RUBIN 5/SL-8 4.4 04:19:03 40° NW 04:19:03 40° NW 04:22:24 10° NNW
Meteor 2-17 Rocket 4.4 04:18:15 32° S 04:21:20 84° E 04:27:28 10° N
Cosmos 2228 Rocket 3.6 04:22:48 30° SSE 04:24:50 57° E 04:29:13 10° NNE
Sich 1 2.9 04:21:50 10° N 04:26:14 87° W 04:27:18 52° S
Cosmos 1459 Rocket 4.1 04:22:14 21° S 04:26:26 75° E 04:32:31 10° N
Cosmos 1125 Rocket 3.8 04:24:41 10° NNW 04:29:15 43° W 04:29:15 43° W
Hubble Space Telescope 2.3 04:32:02 24° SSE 04:32:02 24° SSE 04:35:11 10° ESE
Cosmos 2061 Rocket 4.2 04:28:29 15° S 04:33:51 77° E 04:40:18 10° N
Cosmos 1515 Rocket 3.6 04:39:37 24° S 04:42:09 76° E 04:46:33 10° N
Cosmos 1538 Rocket 4.0 04:39:51 34° SSW 04:42:12 74° WNW 04:47:36 10° NNE
Cosmos 1726 3.5 04:45:05 25° NW 04:45:05 25° NW 04:47:25 10° NNW
Shenzhou-11 Module 2.6 04:45:48 45° SSE 04:45:55 45° SE 04:48:53 10° ENE
In-Cosmos 22 Rocket 4.1 04:44:13 10° N 04:49:37 82° E 04:54:55 10° S
Kakehashi 3.8 04:47:15 29° WSW 04:50:13 65° S 04:58:33 10° E
Cosmos 1633 Rocket 3.1 04:47:23 10° NNW 04:51:37 52° W 04:53:42 27° SSW
COSMOS 2406 4.3 04:50:49 24° W 04:52:19 26° WNW 04:57:03 10° N
NOSS 2 (A) 4.3 04:51:53 10° NNW 04:54:22 76° ENE 04:57:23 10° SSE
ERBS 2.8 04:52:47 10° NNW 04:56:10 60° NE 04:59:33 10° SE
Cosmos 2016 Rocket 3.9 04:56:50 10° S 05:02:58 78° W 05:09:06 10° N
ADEOS II 2.3 04:59:50 10° N 05:04:53 49° WNW 05:08:28 19° SW
OE (NEXTSAT) 4.3 05:05:17 32° WSW 05:06:48 79° NW 05:10:23 10° NE
USA 229 DEB 3.9 05:00:15 10° NW 05:07:17 57° WSW 05:14:25 10° S
USA 229 3.9 05:00:22 10° NW 05:07:24 57° WSW 05:14:31 10° SSE
Cosmos 1833 Rocket 3.1 05:04:11 10° S 05:09:43 62° ESE 05:15:18 10° NNE
Cosmos 1680 Rocket 3.9 05:05:47 10° S 05:11:00 66° ESE 05:16:16 10° NNE
Cosmos 1328 Rocket 4.3 05:09:34 24° WSW 05:11:11 31° W 05:15:03 10° NNW
Cosmos 1802 Rocket 4.1 05:06:12 12° SSW 05:11:41 54° W 05:17:48 10° N
BREEZE M DEB (TANK) 4.1 05:08:06 10° NW 05:12:31 88° SW 05:31:48 10° SE
Cosmos 1315 Rocket 4.0 05:10:44 10° NW 05:13:57 23° W 05:14:44 22° WSW
Cosmos 1725 Rocket 4.0 05:07:56 10° S 05:14:07 89° ESE 05:20:19 10° N
Cosmos 1300 4.4 05:16:33 16° W 05:16:49 16° WNW 05:19:16 10° NW
Cosmos 2112 Rocket 4.5 05:11:38 10° S 05:16:50 63° ESE 05:22:06 10° NNE
SL-27 R/B 4.5 05:17:23 13° WNW 05:17:32 13° WNW 05:19:09 10° NW
Okean-O 4.1 05:19:36 10° NNE 05:23:46 39° E 05:27:54 10° SSE
CZ-4B R/B 4.0 05:20:06 10° NNE 05:23:55 68° E 05:27:35 10° S
PSLV R/B 4.2 05:21:32 10° N 05:25:30 36° WNW 05:29:00 12° SW
Cosmos 2278 4.3 05:20:01 10° NNW 05:25:37 63° ENE 05:31:12 10° SSE
CZ-4B R/B 4.0 05:25:14 10° N 05:29:08 31° WNW 05:32:46 12° SW
Okean O Rocket 2.3 05:26:58 10° N 05:31:00 35° WNW 05:34:59 10° SW
Cosmos 1933 Rocket 3.9 05:27:25 10° NNW 05:31:38 43° W 05:35:50 10° SSW
Cosmos 1869 4.0 05:28:38 10° S 05:32:29 56° E 05:36:23 10° NNE
Cosmos 1455 2.3 05:30:14 10° SSW 05:33:54 52° W 05:37:35 10° N
COSMOS 2487 2.5 05:31:26 10° SSW 05:34:55 58° WNW 05:38:25 10° N
Tsikada Rocket 4.1 05:29:14 10° N 05:35:34 87° W 05:41:57 10° S
Lacrosse 5 4.1 05:32:58 10° NNW 05:37:20 28° NE 05:41:41 10° ESE
Tiangong 2 1.1 05:35:14 14° WSW 05:37:56 87° NNW 05:41:09 10° ENE
USA 234 3.4 05:33:26 10° NE 05:39:54 64° NW 05:46:20 10° WSW
Cosmos 1697 Rocket 4.0 05:37:30 10° N 05:42:57 46° ENE 05:48:21 10° SE
NOSS 3-1 (C) 4.1 05:35:41 10° NW 05:43:31 70° WSW 05:51:58 10° SSE
Cosmos 1707 Rocket 3.8 05:41:57 10° S 05:46:22 78° E 05:50:46 10° N
Meteor 2-3 Rocket 3.9 05:41:40 10° NNW 05:47:06 51° W 05:52:35 10° SSW
Meteor 2-12 Rocket 4.4 05:42:41 10° S 05:48:44 80° W 05:54:48 10° N
Cosmos 2082 Rocket 2.4 05:44:43 10° SW 05:50:11 54° WNW 05:55:42 10° N
USA 116 4.5 05:45:53 10° SSE 05:51:14 88° WSW 05:56:20 10° NNW
Cosmos 1151 Rocket 4.5 05:49:07 10° WSW 05:52:13 19° WNW 05:55:20 10° NNW
Meteor 1-31 Rocket 3.2 05:48:48 10° N 05:52:33 44° WNW 05:56:17 10° SSW
Feng Yun 1-1 Rocket 4.3 05:48:29 10° NNE 05:54:10 89° WNW 05:59:40 10° SSW
ATLAS 3B CENTAUR R/B 4.4 05:39:15 10° WSW 06:03:12 67° S 06:11:25 10° E
